GJLL EGNH-EGNH

Flight info

Callsign GJLL
Flight time 0h 7m
Altitude 4000
Route VP367 DCT VP375 DCT 5350N00236W 5352N00224W 5401N00215W 5404N00217W 5407N00231W 5408N00246W 5402N00255W DCT VP384 DCT VP372
Aircraft G2CA/L-SFG/C

Departure

Time 2026-05-05 19:45
Airport Blackpool Airport (EGNH)

Arrival

Time 2026-05-05 19:52
Airport Blackpool Airport (EGNH)
Time Latitude Longitude Altitude Speed Heading
2026-05-05 19:40 53.77827 -3.03880 36 ft 0 kts 347°
2026-05-05 19:42 53.77828 -3.03881 36 ft 2 kts 349°
2026-05-05 19:43 53.77821 -3.03914 57 ft 7 kts 233°
2026-05-05 19:43 53.77742 -3.04063 70 ft 42 kts 223°
2026-05-05 19:43 53.77458 -3.04330 83 ft 34 kts 178°
2026-05-05 19:43 53.77384 -3.04223 43 ft 7 kts 147°
2026-05-05 19:44 53.77383 -3.04231 35 ft 0 kts 141°
2026-05-05 19:44 53.77382 -3.04228 41 ft 5 kts 142°
2026-05-05 19:45 53.77283 -3.04033 86 ft 42 kts 129°
2026-05-05 19:45 53.77035 -3.03457 297 ft 72 kts 114°
2026-05-05 19:45 53.76834 -3.02671 528 ft 69 kts 100°
2026-05-05 19:45 53.76717 -3.01774 641 ft 78 kts 98°
2026-05-05 19:46 53.76599 -3.00859 780 ft 85 kts 104°
2026-05-05 19:46 53.76417 -2.99977 1021 ft 83 kts 104°
2026-05-05 19:46 53.76216 -2.99083 1252 ft 75 kts 98°
2026-05-05 19:46 53.76184 -2.98151 1373 ft 79 kts 89°
2026-05-05 19:47 53.76168 -2.97268 1598 ft 79 kts 79°
2026-05-05 19:47 53.76165 -2.96350 1773 ft 81 kts 99°
2026-05-05 19:47 53.75971 -2.95475 1945 ft 83 kts 103°
2026-05-05 19:47 53.75805 -2.94643 2133 ft 84 kts 100°
2026-05-05 19:48 53.75637 -2.93751 2350 ft 78 kts 98°
2026-05-05 19:48 53.75650 -2.92977 2710 ft 58 kts 96°
2026-05-05 19:48 53.75382 -2.92288 2754 ft 84 kts 124°
2026-05-05 19:48 53.74992 -2.91567 2929 ft 79 kts 120°
2026-05-05 19:49 53.74619 -2.90736 2427 ft 98 kts 130°
2026-05-05 19:49 53.74282 -2.90275 2354 ft 88 kts 142°
2026-05-05 19:49 53.73656 -2.89693 2465 ft 67 kts 149°
2026-05-05 19:49 53.73081 -2.89252 1769 ft 107 kts 151°
2026-05-05 19:50 53.72500 -2.88714 1718 ft 86 kts 143°
2026-05-05 19:50 53.72046 -2.88096 1664 ft 81 kts 130°
2026-05-05 19:50 53.71677 -2.87444 1700 ft 73 kts 127°
2026-05-05 19:50 53.71365 -2.86858 1756 ft 70 kts 123°
2026-05-05 19:51 53.70987 -2.86005 1493 ft 96 kts 120°
2026-05-05 19:51 53.70630 -2.85069 1470 ft 84 kts 118°
2026-05-05 19:51 53.70320 -2.84258 1429 ft 88 kts 119°
2026-05-05 19:51 53.69985 -2.83412 1313 ft 83 kts 119°
2026-05-05 19:52 53.69653 -2.82609 1098 ft 84 kts 126°
2026-05-05 19:52 53.69315 -2.81807 694 ft 80 kts 120°
2026-05-05 19:52 53.69110 -2.81111 399 ft 52 kts 116°
2026-05-05 19:52 53.69027 -2.80688 268 ft 22 kts 123°
2026-05-05 19:53 53.68955 -2.80387 248 ft 37 kts 123°
2026-05-05 19:53 53.68870 -2.79945 159 ft 45 kts 113°
2026-05-05 19:53 53.68867 -2.79515 32 ft 13 kts 99°
2026-05-05 19:53 53.68867 -2.79509 32 ft 0 kts 97°
2026-05-05 19:54 53.68868 -2.79501 37 ft 3 kts 109°
2026-05-05 19:54 53.68867 -2.79471 110 ft 10 kts 107°
2026-05-05 19:54 53.68856 -2.78904 237 ft 73 kts 82°
2026-05-05 19:54 53.69040 -2.78143 487 ft 75 kts 46°
2026-05-05 19:55 53.69573 -2.77906 655 ft 85 kts
2026-05-05 19:55 53.70103 -2.78507 844 ft 98 kts 319°
2026-05-05 19:55 53.70506 -2.79108 1163 ft 52 kts 32°
2026-05-05 19:55 53.70877 -2.78541 1135 ft 84 kts 43°
2026-05-05 19:56 53.71306 -2.77925 1208 ft 86 kts 51°
2026-05-05 19:56 53.71783 -2.77221 1127 ft 95 kts 46°
2026-05-05 19:56 53.72328 -2.76581 968 ft 95 kts 37°
2026-05-05 19:56 53.72931 -2.76105 801 ft 99 kts 27°
2026-05-05 19:57 53.73543 -2.75638 700 ft 91 kts 41°
2026-05-05 19:57 53.73868 -2.75199 677 ft 90 kts 47°
2026-05-05 19:57 53.74463 -2.74282 770 ft 81 kts 45°
2026-05-05 19:57 53.74783 -2.73540 874 ft 78 kts 63°
2026-05-05 19:58 53.74991 -2.72658 868 ft 83 kts 84°
2026-05-05 19:58 53.74853 -2.71657 745 ft 92 kts 109°
2026-05-05 19:58 53.74910 -2.70709 856 ft 82 kts 72°
2026-05-05 19:58 53.74959 -2.69752 835 ft 88 kts 94°
2026-05-05 19:59 53.74970 -2.68738 772 ft 88 kts 68°
2026-05-05 19:59 53.75033 -2.67804 838 ft 83 kts 112°
2026-05-05 19:59 53.74947 -2.66932 1024 ft 74 kts 72°
2026-05-05 19:59 53.75337 -2.66262 993 ft 89 kts 36°
2026-05-05 20:00 53.75856 -2.65705 894 ft 91 kts 56°
2026-05-05 20:00 53.76118 -2.64821 906 ft 84 kts 53°
2026-05-05 20:00 53.76404 -2.63975 902 ft 80 kts 70°
2026-05-05 20:00 53.76661 -2.63307 1166 ft 69 kts 23°
2026-05-05 20:01 53.77168 -2.63550 1369 ft 85 kts 341°
2026-05-05 20:01 53.77685 -2.64179 1329 ft 103 kts 336°
2026-05-05 20:01 53.78189 -2.64903 1486 ft 91 kts 327°
2026-05-05 20:01 53.78623 -2.65671 1616 ft 95 kts 323°
2026-05-05 20:02 53.79011 -2.66559 1765 ft 96 kts 315°
2026-05-05 20:02 53.79389 -2.67477 1924 ft 92 kts 317°
2026-05-05 20:02 53.79781 -2.68358 2059 ft 92 kts 322°
2026-05-05 20:02 53.80234 -2.69095 2231 ft 90 kts 326°
2026-05-05 20:03 53.80749 -2.69895 2167 ft 104 kts 329°
2026-05-05 20:03 53.81301 -2.70620 2203 ft 100 kts 335°
2026-05-05 20:03 53.81897 -2.71219 2208 ft 97 kts 345°
2026-05-05 20:03 53.82370 -2.70779 2041 ft 89 kts 76°
2026-05-05 20:04 53.82281 -2.69819 2042 ft 89 kts 104°
2026-05-05 20:04 53.82140 -2.68863 2014 ft 81 kts 95°
2026-05-05 20:04 53.82146 -2.67912 1927 ft 83 kts 85°
2026-05-05 20:04 53.82260 -2.66940 1840 ft 83 kts 73°
2026-05-05 20:05 53.82474 -2.66013 1801 ft 68 kts 66°
2026-05-05 20:05 53.82459 -2.65167 1716 ft 87 kts 108°
2026-05-05 20:05 53.82334 -2.64186 1591 ft 83 kts 81°
2026-05-05 20:05 53.82592 -2.63337 1558 ft 81 kts 60°
2026-05-05 20:06 53.82812 -2.62482 1561 ft 77 kts 79°
2026-05-05 20:06 53.82825 -2.61557 1539 ft 83 kts 89°
2026-05-05 20:06 53.82826 -2.60527 1360 ft 87 kts 89°
2026-05-05 20:06 53.82853 -2.59549 1336 ft 81 kts 79°
2026-05-05 20:07 53.82917 -2.58895 1236 ft 87 kts 79°
2026-05-05 20:07 53.83008 -2.57856 1112 ft 85 kts 75°
2026-05-05 20:07 53.83428 -2.56823 1106 ft 89 kts 63°
2026-05-05 20:07 53.83650 -2.55790 846 ft 93 kts 80°
2026-05-05 20:08 53.83810 -2.54842 958 ft 80 kts 73°
2026-05-05 20:08 53.83841 -2.54214 1010 ft 79 kts 86°
2026-05-05 20:08 53.83788 -2.53334 1084 ft 84 kts 102°
2026-05-05 20:08 53.83577 -2.52392 1005 ft 85 kts 80°
2026-05-05 20:09 53.83450 -2.51553 938 ft 89 kts 130°
2026-05-05 20:09 53.83411 -2.50615 916 ft 82 kts 82°
2026-05-05 20:09 53.83602 -2.49759 922 ft 81 kts 82°
2026-05-05 20:09 53.83560 -2.48788 797 ft 91 kts 91°
2026-05-05 20:10 53.83943 -2.48227 773 ft 93 kts 15°
2026-05-05 20:10 53.84426 -2.47741 800 ft 80 kts 55°
2026-05-05 20:10 53.84735 -2.46952 845 ft 79 kts 69°
2026-05-05 20:10 53.85022 -2.46368 1248 ft 47 kts 57°
2026-05-05 20:11 53.85031 -2.45757 1522 ft 66 kts 89°
2026-05-05 20:11 53.84913 -2.44832 1316 ft 90 kts 100°
2026-05-05 20:11 53.84611 -2.43862 1135 ft 100 kts 127°
2026-05-05 20:11 53.84121 -2.42990 930 ft 96 kts 115°
2026-05-05 20:12 53.83771 -2.42122 925 ft 93 kts 125°
2026-05-05 20:12 53.83159 -2.41743 966 ft 103 kts 171°
2026-05-05 20:12 53.82841 -2.41310 775 ft 81 kts 54°
2026-05-05 20:12 53.83023 -2.40475 874 ft 73 kts 70°
2026-05-05 20:13 53.82882 -2.39674 868 ft 94 kts 147°
2026-05-05 20:13 53.82240 -2.39593 999 ft 90 kts 149°
2026-05-05 20:13 53.81779 -2.39076 988 ft 83 kts 115°
2026-05-05 20:13 53.81908 -2.39221 743 ft 110 kts 234°
2026-05-05 20:14 53.81398 -2.38948 696 ft 76 kts 128°
2026-05-05 20:14 53.80973 -2.38350 734 ft 89 kts 143°
2026-05-05 20:14 53.80515 -2.37994 914 ft 76 kts 107°
2026-05-05 20:14 53.80433 -2.37185 1083 ft 68 kts 84°
2026-05-05 20:15 53.80452 -2.36495 1441 ft 51 kts 82°
2026-05-05 20:15 53.80507 -2.35759 1458 ft 71 kts 80°
2026-05-05 20:15 53.80487 -2.34902 1386 ft 87 kts 89°
2026-05-05 20:15 53.80450 -2.33979 1504 ft 70 kts 81°
2026-05-05 20:16 53.80752 -2.33423 1704 ft 67 kts 41°
2026-05-05 20:16 53.81149 -2.33113 1972 ft 61 kts 30°
2026-05-05 20:16 53.81550 -2.32899 2217 ft 63 kts 30°
2026-05-05 20:16 53.81976 -2.32808 2523 ft 58 kts 19°
2026-05-05 20:17 53.82462 -2.32810 2506 ft 87 kts
2026-05-05 20:17 53.83051 -2.32985 2555 ft 87 kts
2026-05-05 20:17 53.83574 -2.33178 2808 ft 71 kts 359°
2026-05-05 20:17 53.84080 -2.33432 2962 ft 74 kts 352°
2026-05-05 20:18 53.84618 -2.34130 2596 ft 113 kts 329°
2026-05-05 20:18 53.85165 -2.34895 2598 ft 92 kts 335°
2026-05-05 20:18 53.85574 -2.35377 3053 ft 42 kts 337°
2026-05-05 20:18 53.85992 -2.35704 3089 ft 73 kts 350°
2026-05-05 20:19 53.86460 -2.35826 3377 ft 66 kts
2026-05-05 20:19 53.86919 -2.35805 3645 ft 61 kts 11°
2026-05-05 20:19 53.87437 -2.35711 3566 ft 91 kts 12°
2026-05-05 20:19 53.88030 -2.35451 3686 ft 85 kts 22°
2026-05-05 20:20 53.88645 -2.35130 3582 ft 95 kts 21°
2026-05-05 20:20 53.89323 -2.34937 3398 ft 99 kts 15°
2026-05-05 20:20 53.89881 -2.34511 3453 ft 81 kts 31°
2026-05-05 20:20 53.90288 -2.34103 3772 ft 64 kts 38°
2026-05-05 20:21 53.90604 -2.33600 3990 ft 74 kts 45°
2026-05-05 20:21 53.90990 -2.32833 3900 ft 86 kts 53°
2026-05-05 20:21 53.91329 -2.31993 3933 ft 85 kts 56°
2026-05-05 20:21 53.91627 -2.31193 4128 ft 74 kts 56°
2026-05-05 20:22 53.91911 -2.30474 4340 ft 74 kts 52°
2026-05-05 20:22 53.92195 -2.29703 4486 ft 81 kts 54°
2026-05-05 20:22 53.92561 -2.28991 4655 ft 80 kts 38°
2026-05-05 20:22 53.92944 -2.28141 4537 ft 99 kts 54°
2026-05-05 20:23 53.93419 -2.27323 4506 ft 95 kts 40°
2026-05-05 20:23 53.93969 -2.26694 4458 ft 97 kts 33°
2026-05-05 20:23 53.94455 -2.26097 4683 ft 76 kts 36°
2026-05-05 20:23 53.94901 -2.25524 4792 ft 81 kts 29°
2026-05-05 20:24 53.95391 -2.24956 4842 ft 89 kts 34°
2026-05-05 20:24 53.95816 -2.24354 5114 ft 70 kts 31°
2026-05-05 20:24 53.96233 -2.23958 5378 ft 71 kts 21°
2026-05-05 20:24 53.96716 -2.23432 5393 ft 90 kts 33°
2026-05-05 20:25 53.97280 -2.22852 5293 ft 97 kts 24°
2026-05-05 20:25 53.97937 -2.22555 5154 ft 102 kts
2026-05-05 20:25 53.98553 -2.23058 4831 ft 110 kts 298°
2026-05-05 20:25 53.98759 -2.24320 4584 ft 111 kts 289°
2026-05-05 20:26 53.98910 -2.25624 4383 ft 112 kts 283°
2026-05-05 20:26 53.98974 -2.26950 4164 ft 117 kts 278°
2026-05-05 20:26 53.98951 -2.28365 3893 ft 119 kts 276°
2026-05-05 20:26 53.99004 -2.29777 3655 ft 121 kts 279°
2026-05-05 20:27 53.99155 -2.31157 3490 ft 114 kts 300°
2026-05-05 20:27 53.99515 -2.32359 3298 ft 117 kts 307°
2026-05-05 20:27 53.99659 -2.33706 3233 ft 117 kts 270°
2026-05-05 20:27 53.99525 -2.35054 3172 ft 120 kts 265°
2026-05-05 20:28 53.99331 -2.36380 3155 ft 118 kts 258°
2026-05-05 20:28 53.99129 -2.37690 3226 ft 109 kts 257°
2026-05-05 20:28 53.98848 -2.38836 3343 ft 103 kts 228°
2026-05-05 20:28 53.98301 -2.39614 3437 ft 105 kts 211°
2026-05-05 20:29 53.97725 -2.40347 3525 ft 105 kts 220°
2026-05-05 20:29 53.97199 -2.41196 3614 ft 103 kts 222°
2026-05-05 20:29 53.96698 -2.42073 3648 ft 106 kts 225°
2026-05-05 20:29 53.96194 -2.42931 3731 ft 104 kts 221°
2026-05-05 20:30 53.95635 -2.43743 3720 ft 106 kts 216°
2026-05-05 20:30 53.95067 -2.44567 3688 ft 109 kts 227°
2026-05-05 20:30 53.94717 -2.45658 3714 ft 108 kts 248°
2026-05-05 20:30 53.94546 -2.46867 3743 ft 104 kts 271°
2026-05-05 20:31 53.94556 -2.48085 3731 ft 107 kts 277°
2026-05-05 20:31 53.94551 -2.49358 3676 ft 111 kts 271°
2026-05-05 20:31 53.94529 -2.50633 3698 ft 107 kts 274°
2026-05-05 20:31 53.94553 -2.51849 3799 ft 101 kts 278°
2026-05-05 20:32 53.94721 -2.53026 3790 ft 103 kts 299°
2026-05-05 20:32 53.95074 -2.54058 3828 ft 97 kts 306°
2026-05-05 20:32 53.95384 -2.55089 3844 ft 100 kts 300°
2026-05-05 20:32 53.95560 -2.56160 4015 ft 91 kts 277°
2026-05-05 20:33 53.95365 -2.57130 4255 ft 85 kts 239°
2026-05-05 20:33 53.95141 -2.57987 4558 ft 73 kts 252°
2026-05-05 20:33 53.95027 -2.58763 4933 ft 61 kts 259°
2026-05-05 20:33 53.94937 -2.59433 5331 ft 57 kts 259°
2026-05-05 20:34 53.94776 -2.60166 5567 ft 70 kts 249°
2026-05-05 20:34 53.94506 -2.60972 5509 ft 102 kts 242°
2026-05-05 20:34 53.94187 -2.62107 5234 ft 115 kts 255°
2026-05-05 20:34 53.94041 -2.63349 5173 ft 102 kts 276°
2026-05-05 20:35 53.94068 -2.64510 5180 ft 95 kts 276°
2026-05-05 20:35 53.94041 -2.65596 5262 ft 90 kts 267°
2026-05-05 20:35 53.93931 -2.66652 5272 ft 98 kts 259°
2026-05-05 20:35 53.93701 -2.67874 4902 ft 117 kts 254°
2026-05-05 20:36 53.93332 -2.69102 4609 ft 116 kts 239°
2026-05-05 20:36 53.92914 -2.70284 4303 ft 119 kts 246°
2026-05-05 20:36 53.92398 -2.71380 4019 ft 120 kts 227°
2026-05-05 20:36 53.91785 -2.72344 3738 ft 121 kts 222°
2026-05-05 20:37 53.91132 -2.73250 3476 ft 120 kts 218°
2026-05-05 20:37 53.90429 -2.74012 3226 ft 119 kts 202°
2026-05-05 20:37 53.89679 -2.74578 3075 ft 115 kts 198°
2026-05-05 20:37 53.88926 -2.74894 3034 ft 112 kts 187°
2026-05-05 20:38 53.88154 -2.75055 2931 ft 105 kts 175°
2026-05-05 20:38 53.87417 -2.75032 2816 ft 109 kts 172°
2026-05-05 20:38 53.86744 -2.74784 2861 ft 98 kts 156°
2026-05-05 20:38 53.86093 -2.74450 2874 ft 96 kts 152°
2026-05-05 20:39 53.85533 -2.73924 2906 ft 97 kts 141°
2026-05-05 20:39 53.84883 -2.73461 2752 ft 107 kts 156°
2026-05-05 20:39 53.84182 -2.73101 2659 ft 102 kts 156°
2026-05-05 20:39 53.83523 -2.72772 2663 ft 96 kts 156°
2026-05-05 20:40 53.82909 -2.72489 2832 ft 86 kts 156°
2026-05-05 20:40 53.82295 -2.72119 2729 ft 95 kts 145°
2026-05-05 20:40 53.81714 -2.71555 2641 ft 97 kts 136°
2026-05-05 20:40 53.81137 -2.71042 2593 ft 107 kts 176°
2026-05-05 20:41 53.80448 -2.71752 2395 ft 121 kts 230°
2026-05-05 20:41 53.80122 -2.73020 2391 ft 116 kts 256°
2026-05-05 20:41 53.79974 -2.74356 2386 ft 116 kts 268°
2026-05-05 20:41 53.79961 -2.75695 2442 ft 109 kts 279°
2026-05-05 20:42 53.80039 -2.76921 2554 ft 106 kts 282°
2026-05-05 20:42 53.80190 -2.78172 2519 ft 113 kts 286°
2026-05-05 20:42 53.80306 -2.79550 2385 ft 120 kts 281°
2026-05-05 20:42 53.80390 -2.80936 2325 ft 119 kts 281°
2026-05-05 20:43 53.80519 -2.82232 2449 ft 106 kts 284°
2026-05-05 20:43 53.80624 -2.83481 2495 ft 108 kts 281°
2026-05-05 20:43 53.80698 -2.84712 2579 ft 107 kts 274°
2026-05-05 20:43 53.80736 -2.86032 2450 ft 119 kts 275°
2026-05-05 20:44 53.80778 -2.87427 2378 ft 117 kts 276°
2026-05-05 20:44 53.80795 -2.88774 2402 ft 111 kts 273°
2026-05-05 20:44 53.80742 -2.90031 2509 ft 107 kts 264°
2026-05-05 20:44 53.80641 -2.91313 2522 ft 112 kts 262°
2026-05-05 20:45 53.80228 -2.93761 2702 ft 103 kts 250°
2026-05-05 20:45 53.79994 -2.94865 2905 ft 98 kts 248°
2026-05-05 20:45 53.79815 -2.96021 2961 ft 108 kts 260°
2026-05-05 20:46 53.79698 -2.97330 2839 ft 118 kts 267°
2026-05-05 20:46 53.79550 -2.98728 2378 ft 123 kts 256°
2026-05-05 20:46 53.79194 -3.00019 2043 ft 117 kts 239°
2026-05-05 20:46 53.78715 -3.01100 1650 ft 111 kts 229°
2026-05-05 20:47 53.78202 -3.02058 1132 ft 111 kts 226°
2026-05-05 20:47 53.77645 -3.03014 449 ft 117 kts 230°
2026-05-05 20:47 53.77280 -3.03938 272 ft 68 kts 296°
2026-05-05 20:47 53.77535 -3.04265 148 ft 42 kts
2026-05-05 20:48 53.77564 -3.04278 34 ft 16 kts 131°
2026-05-05 20:48 53.77556 -3.04262 35 ft 0 kts 133°